This demonstration page uses our WeatherBlox Daily Observations layout. Learn more.

Left ArrowRight Arrow

Hourly Observations for February 9, 2017

Temp ( °F °C ) Dew Point ( °F °C ) Humidity (%) Winds ( mph kmh ) Pressure ( in mb ) Visibility ( mi km ) Precip ( " mm )
12:53 am 00:53 Clear -4 -20 -9 -22.8 79 79 ENE 7 11 30.10 1019 10 16 0.00 0.00
1:53 am 01:53 Clear -3 -19.4 -9 -22.8 75 75 ENE 5 7 30.08 1019 10 16 0.00 0.00
2:53 am 02:53 Partly Cloudy -2 -18.9 -9 -22.8 72 72 Calm 30.06 1018 10 16 0.00 0.00
3:53 am 03:53 Clear -1 -18.3 -7 -21.7 75 75 E 6 9 30.00 1016 10 16 0.00 0.00
4:53 am 04:53 Mostly Clear -1 -18.3 -7 -21.7 75 75 Calm 29.97 1015 10 16 0.00 0.00
5:53 am 05:53 Cloudy with Light Snow 0 -17.8 -6 -21.1 76 76 NE 3 6 29.91 1013 10 16 0.00 0.03
6:53 am 06:53 Mostly Clear 1 -17.2 -5 -20.6 75 75 ENE 3 6 29.86 1011 10 16 0.00 0.03
7:53 am 07:53 Cloudy 2 -16.7 -3 -19.4 80 80 ENE 3 6 29.83 1010 10 16 0.00 0.00
8:53 am 08:53 Mostly Sunny 3 -16.1 -2 -18.9 79 79 E 5 7 29.77 1008 10 16 0.00 0.00
9:53 am 09:53 Cloudy 5 -15 -1 -18.3 76 76 NE 5 7 29.74 1007 10 16 0.00 0.00
10:53 am 10:53 Cloudy 6 -14.4 1 -17.2 79 79 ENE 6 9 29.70 1006 10 16 0.00 0.00
11:53 am 11:53 Mostly Sunny 8 -13.3 1 -17.2 73 73 NE 5 7 29.65 1004 10 16 0.00 0.00
12:53 pm 12:53 Sunny 11 -11.7 3 -16.1 70 70 Calm 29.60 1002 10 16 0.00 0.00
1:53 pm 13:53 Sunny 12 -11.1 5 -15 73 73 Calm 29.57 1001 10 16 0.00 0.00
2:53 pm 14:53 Sunny 14 -10 7 -13.9 73 73 Calm 29.55 1001 10 16 0.00 0.00
3:53 pm 15:53 Sunny 16 -8.9 10 -12.2 77 77 Calm 29.52 1000 10 16 0.00 0.00
4:53 pm 16:53 Sunny 18 -7.8 11 -11.7 74 74 Calm 29.49 999 10 16 0.00 0.00
5:53 pm 17:53 Clear 19 -7.2 13 -10.6 77 77 NE 6 9 29.47 998 10 16 0.00 0.00
6:53 pm 18:53 Clear 19 -7.2 14 -10 81 81 ENE 6 9 29.45 997 10 16 0.00 0.00
7:53 pm 19:53 Clear 19 -7.2 14 -10 81 81 Calm 29.43 997 10 16 0.00 0.00
8:53 pm 20:53 Clear 45 7.2 35 1.7 68 68 WSW 26 43 29.39 995 10 16 0.00 0.00
9:53 pm 21:53 Clear 41 5 34 1.1 76 76 W 15 24 29.40 996 10 16 0.00 0.00
10:53 pm 22:53 Mostly Cloudy 41 5 35 1.7 79 79 WSW 17 28 29.41 996 10 16 0.00 0.00
11:53 pm 23:53 Mostly Clear 41 5 34 1.1 76 76 SW 20 31 29.42 996 10 16 0.00 0.00

Powered by AerisWeather